Location: Dealu Mare
(46.0500°N, 22.8167°E)
Time: 08:32:44
(UTC+00:00)

USA 307 - Pass Details

Date: 15 January 2026
Orbit: 495 x 502 km, 54.0° (Epoch: 10 March)

Event Time Altitude Azimuth Distance (km) Brightness Sun altitude
Exits shadow 04:32:02 23° 330° (NNW) 1,116 4.0 -16.0°
Maximum altitude 04:33:52 34° 18° (NNE) 840 3.8 -15.7°
Drops below altitude 10° 04:37:28 10° 85° (E) 1,661 6.4 -15.1°
Sets 04:39:41 0° 94° (E) 2,464 7.9 -14.8°
